Time,TemperatureF,DewpointF,PressureIn,WindDirection,WindDirectionDegrees,WindSpeedMPH,WindSpeedGustMPH,Humidity,HourlyPrecipIn,Conditions,Clouds,dailyrainin,SoftwareType,DateUTC
2013-02-06 00:00:00,33.5,28.6,30.05,NNW,333,5.0,11.0,82,0.00,,---,0.00,VWS V14.00,2013-02-06 05:00:00,
2013-02-06 00:05:00,33.3,28.4,30.05,NNW,341,6.0,11.0,82,0.00,,---,0.00,VWS V14.00,2013-02-06 05:05:00,
2013-02-06 00:10:00,33.1,28.2,30.05,NNW,348,6.0,11.0,82,0.00,,---,0.00,VWS V14.00,2013-02-06 05:10:00,
2013-02-06 00:15:00,32.9,28.0,30.05,NNW,347,6.0,8.0,82,0.00,,---,0.00,VWS V14.00,2013-02-06 05:15:00,
2013-02-06 00:20:00,32.7,27.8,30.05,North,355,5.0,9.0,82,0.00,,---,0.00,VWS V14.00,2013-02-06 05:20:00,
2013-02-06 00:25:00,32.5,27.9,30.05,North,350,5.0,9.0,83,0.00,,---,0.00,VWS V14.00,2013-02-06 05:25:00,
2013-02-06 00:30:00,32.3,27.7,30.06,North,359,4.0,9.0,83,0.00,,---,0.00,VWS V14.00,2013-02-06 05:30:00,
2013-02-06 00:35:00,32.2,27.9,30.06,North,0,6.0,9.0,84,0.00,,---,0.00,VWS V14.00,2013-02-06 05:35:00,
2013-02-06 00:40:00,32.1,27.8,30.06,North,349,6.0,10.0,84,0.00,,---,0.00,VWS V14.00,2013-02-06 05:40:00,
2013-02-06 00:45:00,32.1,27.5,30.06,North,359,7.0,9.0,83,0.00,,---,0.00,VWS V14.00,2013-02-06 05:45:00,
2013-02-06 00:50:00,32.2,27.6,30.06,North,359,5.0,10.0,83,0.00,,---,0.00,VWS V14.00,2013-02-06 05:50:00,
2013-02-06 00:55:00,32.2,27.6,30.06,North,350,7.0,10.0,83,0.00,,---,0.00,VWS V14.00,2013-02-06 05:55:00,
2013-02-06 01:00:00,32.2,27.6,30.07,North,359,2.0,10.0,83,0.00,,---,0.00,VWS V14.00,2013-02-06 06:00:00,
2013-02-06 01:05:00,32.2,27.6,30.07,North,351,7.0,10.0,83,0.00,,---,0.00,VWS V14.00,2013-02-06 06:05:00,
2013-02-06 01:10:00,32.1,27.8,30.07,North,349,2.0,10.0,84,0.00,,---,0.00,VWS V14.00,2013-02-06 06:10:00,
2013-02-06 01:15:00,32.1,27.8,30.07,North,354,0.0,6.0,84,0.00,,---,0.00,VWS V14.00,2013-02-06 06:15:00,
2013-02-06 01:20:00,32.1,27.8,30.07,North,350,4.0,6.0,84,0.00,,---,0.00,VWS V14.00,2013-02-06 06:20:00,
2013-02-06 01:25:00,32.0,27.7,30.07,North,349,0.0,6.0,84,0.00,,---,0.00,VWS V14.00,2013-02-06 06:25:00,
2013-02-06 01:30:00,32.0,27.7,30.07,NNW,345,2.0,6.0,84,0.00,,---,0.00,VWS V14.00,2013-02-06 06:30:00,
2013-02-06 01:35:00,32.0,27.7,30.07,NNW,345,0.0,6.0,84,0.00,,---,0.00,VWS V14.00,2013-02-06 06:35:00,
2013-02-06 01:40:00,31.9,27.6,30.07,NNW,345,0.0,6.0,84,0.00,,---,0.00,VWS V14.00,2013-02-06 06:40:00,
2013-02-06 01:45:00,31.9,27.6,30.07,NNW,345,0.0,2.0,84,0.00,,---,0.00,VWS V14.00,2013-02-06 06:45:00,
2013-02-06 01:50:00,31.9,27.6,30.07,NNW,345,0.0,2.0,84,0.00,,---,0.00,VWS V14.00,2013-02-06 06:50:00,
2013-02-06 01:55:00,31.9,27.6,30.07,NNW,345,0.0,2.0,84,0.00,,---,0.00,VWS V14.00,2013-02-06 06:55:00,
2013-02-06 02:00:00,31.9,27.6,30.08,NNW,345,0.0,2.0,84,0.00,,---,0.00,VWS V14.00,2013-02-06 07:00:00,
2013-02-06 02:05:00,31.8,27.5,30.08,NNW,345,0.0,2.0,84,0.00,,---,0.00,VWS V14.00,2013-02-06 07:05:00,
2013-02-06 02:10:00,31.8,27.8,30.08,NNW,345,0.0,2.0,85,0.00,,---,0.00,VWS V14.00,2013-02-06 07:10:00,
2013-02-06 02:15:00,31.8,27.8,30.08,NNW,345,0.0,0.0,85,0.00,,---,0.00,VWS V14.00,2013-02-06 07:15:00,
2013-02-06 02:20:00,31.7,27.7,30.08,NNW,345,0.0,0.0,85,0.00,,---,0.00,VWS V14.00,2013-02-06 07:20:00,
2013-02-06 02:25:00,31.6,27.6,30.08,NNW,345,0.0,0.0,85,0.00,,---,0.00,VWS V14.00,2013-02-06 07:25:00,
2013-02-06 02:30:00,31.6,27.6,30.07,NNW,345,0.0,0.0,85,0.00,,---,0.00,VWS V14.00,2013-02-06 07:30:00,
2013-02-06 02:35:00,31.5,27.5,30.07,NNW,345,0.0,0.0,85,0.00,,---,0.00,VWS V14.00,2013-02-06 07:35:00,
2013-02-06 02:40:00,31.5,27.5,30.07,NNW,345,0.0,0.0,85,0.00,,---,0.00,VWS V14.00,2013-02-06 07:40:00,
2013-02-06 02:45:00,31.4,27.4,30.09,NNW,345,0.0,0.0,85,0.00,,---,0.00,VWS V14.00,2013-02-06 07:45:00,
2013-02-06 02:50:00,31.3,27.3,30.09,NNW,345,0.0,0.0,85,0.00,,---,0.00,VWS V14.00,2013-02-06 07:50:00,
2013-02-06 02:55:00,31.2,27.2,30.09,NNW,345,0.0,0.0,85,0.00,,---,0.00,VWS V14.00,2013-02-06 07:55:00,
2013-02-06 03:00:00,31.2,27.5,30.10,NNW,345,0.0,0.0,86,0.00,,---,0.00,VWS V14.00,2013-02-06 08:00:00,
2013-02-06 03:05:00,31.1,27.4,30.10,NNW,345,0.0,0.0,86,0.00,,---,0.00,VWS V14.00,2013-02-06 08:05:00,
2013-02-06 03:10:00,31.1,27.4,30.10,NNW,345,0.0,0.0,86,0.00,,---,0.00,VWS V14.00,2013-02-06 08:10:00,
2013-02-06 03:15:00,31.1,27.4,30.10,NNW,345,0.0,0.0,86,0.00,,---,0.00,VWS V14.00,2013-02-06 08:15:00,
2013-02-06 03:20:00,31.0,27.3,30.10,NNW,345,0.0,0.0,86,0.00,,---,0.00,VWS V14.00,2013-02-06 08:20:00,
2013-02-06 03:25:00,30.9,27.2,30.10,NNW,345,0.0,0.0,86,0.00,,---,0.00,VWS V14.00,2013-02-06 08:25:00,
2013-02-06 03:30:00,30.9,28.9,30.11,NNW,345,0.0,0.0,92,0.00,,---,0.00,VWS V14.00,2013-02-06 08:30:00,
2013-02-06 03:35:00,30.8,27.1,30.11,NNW,345,0.0,0.0,86,0.00,,---,0.00,VWS V14.00,2013-02-06 08:35:00,
2013-02-06 03:40:00,30.7,27.0,30.11,NNW,345,0.0,0.0,86,0.00,,---,0.00,VWS V14.00,2013-02-06 08:40:00,
2013-02-06 03:45:00,30.6,26.9,30.10,NNW,345,0.0,0.0,86,0.00,,---,0.00,VWS V14.00,2013-02-06 08:45:00,
2013-02-06 03:50:00,30.5,26.8,30.10,NNW,345,0.0,0.0,86,0.00,,---,0.00,VWS V14.00,2013-02-06 08:50:00,
2013-02-06 03:55:00,30.3,26.6,30.10,NNW,345,0.0,0.0,86,0.00,,---,0.00,VWS V14.00,2013-02-06 08:55:00,
2013-02-06 04:00:00,30.2,26.5,30.10,NNW,345,0.0,0.0,86,0.00,,---,0.00,VWS V14.00,2013-02-06 09:00:00,
2013-02-06 04:05:00,30.0,26.3,30.10,NNW,345,0.0,0.0,86,0.00,,---,0.00,VWS V14.00,2013-02-06 09:05:00,
2013-02-06 04:10:00,29.9,26.2,30.10,NNW,345,0.0,0.0,86,0.00,,---,0.00,VWS V14.00,2013-02-06 09:10:00,
2013-02-06 04:15:00,29.7,26.0,30.10,NNW,345,0.0,0.0,86,0.00,,---,0.00,VWS V14.00,2013-02-06 09:15:00,
2013-02-06 04:20:00,29.6,25.9,30.10,NNW,345,0.0,0.0,86,0.00,,---,0.00,VWS V14.00,2013-02-06 09:20:00,
2013-02-06 04:25:00,29.4,25.7,30.10,NNW,345,0.0,0.0,86,0.00,,---,0.00,VWS V14.00,2013-02-06 09:25:00,
2013-02-06 04:30:00,29.3,25.6,30.11,NNW,345,0.0,0.0,86,0.00,,---,0.00,VWS V14.00,2013-02-06 09:30:00,
2013-02-06 04:35:00,29.1,25.4,30.11,NNW,345,0.0,0.0,86,0.00,,---,0.00,VWS V14.00,2013-02-06 09:35:00,
2013-02-06 04:40:00,28.9,25.2,30.11,NNW,345,0.0,0.0,86,0.00,,---,0.00,VWS V14.00,2013-02-06 09:40:00,
2013-02-06 04:45:00,28.8,25.1,30.11,NNW,345,0.0,0.0,86,0.00,,---,0.00,VWS V14.00,2013-02-06 09:45:00,
2013-02-06 04:50:00,28.7,25.0,30.11,NNW,345,0.0,0.0,86,0.00,,---,0.00,VWS V14.00,2013-02-06 09:50:00,
2013-02-06 04:55:00,28.6,25.0,30.11,NNW,345,0.0,0.0,86,0.00,,---,0.00,VWS V14.00,2013-02-06 09:55:00,
2013-02-06 05:00:00,28.5,24.9,30.11,NNW,345,0.0,0.0,86,0.00,,---,0.00,VWS V14.00,2013-02-06 10:00:00,
2013-02-06 05:05:00,28.4,25.0,30.11,NNW,345,0.0,0.0,87,0.00,,---,0.00,VWS V14.00,2013-02-06 10:05:00,
2013-02-06 05:10:00,28.3,24.9,30.11,NNW,345,0.0,0.0,87,0.00,,---,0.00,VWS V14.00,2013-02-06 10:10:00,
2013-02-06 05:15:00,28.3,24.9,30.11,NNW,345,0.0,0.0,87,0.00,,---,0.00,VWS V14.00,2013-02-06 10:15:00,
2013-02-06 05:20:00,28.2,24.8,30.11,NNW,345,0.0,0.0,87,0.00,,---,0.00,VWS V14.00,2013-02-06 10:20:00,
2013-02-06 05:25:00,28.1,24.7,30.11,NNW,345,0.0,0.0,87,0.00,,---,0.00,VWS V14.00,2013-02-06 10:25:00,
2013-02-06 05:30:00,28.0,24.6,30.12,NNW,345,0.0,0.0,87,0.00,,---,0.00,VWS V14.00,2013-02-06 10:30:00,
2013-02-06 05:35:00,27.8,24.4,30.12,NNW,345,0.0,0.0,87,0.00,,---,0.00,VWS V14.00,2013-02-06 10:35:00,
2013-02-06 05:40:00,27.7,24.3,30.12,NNW,345,0.0,0.0,87,0.00,,---,0.00,VWS V14.00,2013-02-06 10:40:00,
2013-02-06 05:45:00,27.7,24.6,30.12,NNW,345,0.0,0.0,88,0.00,,---,0.00,VWS V14.00,2013-02-06 10:45:00,
2013-02-06 05:50:00,27.8,24.7,30.12,NNW,345,0.0,0.0,88,0.00,,---,0.00,VWS V14.00,2013-02-06 10:50:00,
2013-02-06 05:55:00,27.8,24.7,30.12,NNW,345,0.0,0.0,88,0.00,,---,0.00,VWS V14.00,2013-02-06 10:55:00,
2013-02-06 06:00:00,27.8,24.7,30.13,NNW,345,0.0,0.0,88,0.00,,---,0.00,VWS V14.00,2013-02-06 11:00:00,
2013-02-06 06:05:00,27.8,24.7,30.13,NNW,345,0.0,0.0,88,0.00,,---,0.00,VWS V14.00,2013-02-06 11:05:00,
2013-02-06 06:10:00,27.7,24.6,30.13,NNW,345,0.0,0.0,88,0.00,,---,0.00,VWS V14.00,2013-02-06 11:10:00,
2013-02-06 06:15:00,27.6,24.5,30.13,NNW,345,0.0,0.0,88,0.00,,---,0.00,VWS V14.00,2013-02-06 11:15:00,
2013-02-06 06:20:00,27.6,24.8,30.13,NNW,345,0.0,0.0,89,0.00,,---,0.00,VWS V14.00,2013-02-06 11:20:00,
2013-02-06 06:25:00,27.5,24.4,30.13,NNW,345,0.0,0.0,88,0.00,,---,0.00,VWS V14.00,2013-02-06 11:25:00,
2013-02-06 06:30:00,27.5,24.7,30.13,NNW,345,0.0,0.0,89,0.00,,---,0.00,VWS V14.00,2013-02-06 11:30:00,
2013-02-06 06:35:00,27.4,24.6,30.13,NNW,345,0.0,1.0,89,0.00,,---,0.00,VWS V14.00,2013-02-06 11:35:00,
2013-02-06 06:40:00,27.3,24.5,30.13,NNW,345,0.0,1.0,89,0.00,,---,0.00,VWS V14.00,2013-02-06 11:40:00,
2013-02-06 06:45:00,27.2,24.4,30.14,NNW,345,0.0,0.0,89,0.00,,---,0.00,VWS V14.00,2013-02-06 11:45:00,
2013-02-06 06:50:00,27.1,24.3,30.14,NNW,345,0.0,0.0,89,0.00,,---,0.00,VWS V14.00,2013-02-06 11:50:00,
2013-02-06 06:55:00,27.0,24.2,30.14,NNW,345,0.0,0.0,89,0.00,,---,0.00,VWS V14.00,2013-02-06 11:55:00,
2013-02-06 07:00:00,26.9,24.1,30.14,NNW,345,0.0,0.0,89,0.00,,---,0.00,VWS V14.00,2013-02-06 12:00:00,
2013-02-06 07:05:00,26.8,24.0,30.14,NNW,345,0.0,0.0,89,0.00,,---,0.00,VWS V14.00,2013-02-06 12:05:00,
2013-02-06 07:10:00,26.6,23.8,30.14,North,349,0.0,0.0,89,0.00,,---,0.00,VWS V14.00,2013-02-06 12:10:00,
2013-02-06 07:15:00,26.6,23.8,30.14,North,349,0.0,0.0,89,0.00,,---,0.00,VWS V14.00,2013-02-06 12:15:00,
2013-02-06 07:20:00,26.6,23.8,30.14,North,349,0.0,0.0,89,0.00,,---,0.00,VWS V14.00,2013-02-06 12:20:00,
2013-02-06 07:25:00,26.5,23.7,30.14,North,349,0.0,0.0,89,0.00,,---,0.00,VWS V14.00,2013-02-06 12:25:00,
2013-02-06 07:30:00,26.5,23.7,30.15,North,349,0.0,0.0,89,0.00,,---,0.00,VWS V14.00,2013-02-06 12:30:00,
2013-02-06 07:35:00,26.4,23.6,30.15,North,349,0.0,0.0,89,0.00,,---,0.00,VWS V14.00,2013-02-06 12:35:00,
2013-02-06 07:40:00,26.4,23.6,30.15,North,349,0.0,0.0,89,0.00,,---,0.00,VWS V14.00,2013-02-06 12:40:00,
2013-02-06 07:45:00,26.4,23.6,30.16,North,349,0.0,0.0,89,0.00,,---,0.00,VWS V14.00,2013-02-06 12:45:00,
2013-02-06 07:50:00,26.5,24.0,30.16,North,349,0.0,0.0,90,0.00,,---,0.00,VWS V14.00,2013-02-06 12:50:00,
2013-02-06 07:55:00,26.6,24.1,30.16,North,349,0.0,1.0,90,0.00,,---,0.00,VWS V14.00,2013-02-06 12:55:00,
2013-02-06 08:00:00,26.7,24.2,30.16,North,349,0.0,1.0,90,0.00,,---,0.00,VWS V14.00,2013-02-06 13:00:00,
2013-02-06 08:05:00,26.8,24.3,30.16,North,349,0.0,1.0,90,0.00,,---,0.00,VWS V14.00,2013-02-06 13:05:00,
2013-02-06 08:10:00,26.8,24.3,30.16,North,349,0.0,1.0,90,0.00,,---,0.00,VWS V14.00,2013-02-06 13:10:00,
2013-02-06 08:15:00,26.8,24.3,30.16,North,349,0.0,0.0,90,0.00,,---,0.00,VWS V14.00,2013-02-06 13:15:00,
2013-02-06 08:20:00,26.7,24.2,30.16,North,349,0.0,0.0,90,0.00,,---,0.00,VWS V14.00,2013-02-06 13:20:00,
2013-02-06 08:25:00,26.6,24.1,30.16,North,349,0.0,0.0,90,0.00,,---,0.00,VWS V14.00,2013-02-06 13:25:00,
2013-02-06 08:30:00,26.6,24.1,30.15,North,353,0.0,0.0,90,0.00,,---,0.00,VWS V14.00,2013-02-06 13:30:00,
2013-02-06 08:35:00,26.5,24.0,30.15,North,353,0.0,0.0,90,0.00,,---,0.00,VWS V14.00,2013-02-06 13:35:00,
2013-02-06 08:40:00,26.6,24.1,30.15,North,353,0.0,0.0,90,0.00,,---,0.00,VWS V14.00,2013-02-06 13:40:00,
2013-02-06 08:45:00,26.6,24.1,30.16,North,353,0.0,0.0,90,0.00,,---,0.00,VWS V14.00,2013-02-06 13:45:00,
2013-02-06 08:50:00,27.0,24.5,30.16,North,354,0.0,2.0,90,0.00,,---,0.00,VWS V14.00,2013-02-06 13:50:00,
2013-02-06 08:55:00,27.9,25.4,30.16,North,352,0.0,3.0,90,0.00,,---,0.00,VWS V14.00,2013-02-06 13:55:00,
2013-02-06 09:00:00,28.5,25.7,30.16,WSW,244,0.0,5.0,89,0.00,,---,0.00,VWS V14.00,2013-02-06 14:00:00,
2013-02-06 09:05:00,28.7,25.6,30.16,SW,236,0.0,5.0,88,0.00,,---,0.00,VWS V14.00,2013-02-06 14:05:00,
2013-02-06 09:10:00,29.2,26.1,30.16,SW,235,0.0,5.0,88,0.00,,---,0.00,VWS V14.00,2013-02-06 14:10:00,
2013-02-06 09:15:00,29.6,26.2,30.17,SW,235,0.0,2.0,87,0.00,,---,0.00,VWS V14.00,2013-02-06 14:15:00,
2013-02-06 09:20:00,29.9,26.2,30.17,SW,227,0.0,4.0,86,0.00,,---,0.00,VWS V14.00,2013-02-06 14:20:00,
2013-02-06 09:25:00,30.3,26.6,30.17,SW,220,0.0,5.0,86,0.00,,---,0.00,VWS V14.00,2013-02-06 14:25:00,
2013-02-06 09:30:00,30.7,26.7,30.17,SSW,213,0.0,6.0,85,0.00,,---,0.00,VWS V14.00,2013-02-06 14:30:00,
2013-02-06 09:35:00,30.8,26.5,30.17,SSW,212,2.0,6.0,84,0.00,,---,0.00,VWS V14.00,2013-02-06 14:35:00,
2013-02-06 09:40:00,31.2,26.9,30.17,SSW,207,4.0,6.0,84,0.00,,---,0.00,VWS V14.00,2013-02-06 14:40:00,
2013-02-06 09:45:00,31.5,27.2,30.17,SSW,206,6.0,7.0,84,0.00,,---,0.00,VWS V14.00,2013-02-06 14:45:00,
2013-02-06 09:50:00,31.6,27.0,30.17,South,184,6.0,8.0,83,0.00,,---,0.00,VWS V14.00,2013-02-06 14:50:00,
2013-02-06 09:55:00,31.9,27.3,30.17,SSW,198,0.0,8.0,83,0.00,,---,0.00,VWS V14.00,2013-02-06 14:55:00,
2013-02-06 10:00:00,32.2,27.6,30.17,SSW,201,0.0,8.0,83,0.00,,---,0.00,VWS V14.00,2013-02-06 15:00:00,
2013-02-06 10:05:00,32.5,27.0,30.17,South,185,5.0,8.0,80,0.00,,---,0.00,VWS V14.00,2013-02-06 15:05:00,
2013-02-06 10:10:00,32.8,27.3,30.17,South,175,6.0,8.0,80,0.00,,---,0.00,VWS V14.00,2013-02-06 15:10:00,
2013-02-06 10:15:00,33.2,27.4,30.16,South,188,0.0,2.0,79,0.00,,---,0.00,VWS V14.00,2013-02-06 15:15:00,
2013-02-06 10:20:00,33.5,27.7,30.16,South,191,2.0,5.0,79,0.00,,---,0.00,VWS V14.00,2013-02-06 15:20:00,
2013-02-06 10:25:00,33.8,28.0,30.16,SSE,148,0.0,6.0,79,0.00,,---,0.00,VWS V14.00,2013-02-06 15:25:00,
2013-02-06 10:30:00,33.9,27.8,30.16,SSE,149,0.0,6.0,78,0.00,,---,0.00,VWS V14.00,2013-02-06 15:30:00,
2013-02-06 10:35:00,34.2,28.1,30.16,SE,141,0.0,6.0,78,0.00,,---,0.00,VWS V14.00,2013-02-06 15:35:00,
2013-02-06 10:40:00,34.3,27.9,30.16,SSE,154,4.0,6.0,77,0.00,,---,0.00,VWS V14.00,2013-02-06 15:40:00,
2013-02-06 10:45:00,34.2,28.1,30.17,SE,139,0.0,7.0,78,0.00,,---,0.00,VWS V14.00,2013-02-06 15:45:00,
2013-02-06 10:50:00,34.3,28.2,30.17,SSW,192,1.0,7.0,78,0.00,,---,0.00,VWS V14.00,2013-02-06 15:50:00,
2013-02-06 10:55:00,34.3,28.5,30.17,SSE,166,6.0,7.0,79,0.00,,---,0.00,VWS V14.00,2013-02-06 15:55:00,
2013-02-06 11:00:00,35.0,29.2,30.17,SSW,194,5.0,7.0,79,0.00,,---,0.00,VWS V14.00,2013-02-06 16:00:00,
2013-02-06 11:05:00,35.0,28.9,30.17,SSW,199,5.0,9.0,78,0.00,,---,0.00,VWS V14.00,2013-02-06 16:05:00,
2013-02-06 11:10:00,35.1,28.6,30.17,South,181,0.0,10.0,77,0.00,,---,0.00,VWS V14.00,2013-02-06 16:10:00,
2013-02-06 11:15:00,35.5,29.0,30.18,South,186,7.0,10.0,77,0.00,,---,0.00,VWS V14.00,2013-02-06 16:15:00,
2013-02-06 11:20:00,36.0,29.2,30.18,SSW,197,9.0,12.0,76,0.00,,---,0.00,VWS V14.00,2013-02-06 16:20:00,
2013-02-06 11:25:00,35.7,28.9,30.18,SW,219,6.0,13.0,76,0.00,,---,0.00,VWS V14.00,2013-02-06 16:25:00,
2013-02-06 11:30:00,35.6,28.8,30.17,SW,222,12.0,15.0,76,0.00,,---,0.00,VWS V14.00,2013-02-06 16:30:00,
2013-02-06 11:35:00,36.0,29.5,30.17,SSW,207,5.0,15.0,77,0.00,,---,0.00,VWS V14.00,2013-02-06 16:35:00,
2013-02-06 11:40:00,36.1,29.3,30.17,SSW,211,7.0,15.0,76,0.00,,---,0.00,VWS V14.00,2013-02-06 16:40:00,
2013-02-06 11:45:00,36.5,29.3,30.18,West,259,10.0,14.0,75,0.00,,---,0.00,VWS V14.00,2013-02-06 16:45:00,
2013-02-06 11:50:00,36.5,29.7,30.18,WSW,237,10.0,14.0,76,0.00,,---,0.00,VWS V14.00,2013-02-06 16:50:00,
2013-02-06 11:55:00,36.8,29.6,30.18,SSW,210,10.0,15.0,75,0.00,,---,0.00,VWS V14.00,2013-02-06 16:55:00,
2013-02-06 12:00:00,36.8,29.6,30.18,SW,235,9.0,16.0,75,0.00,,---,0.00,VWS V14.00,2013-02-06 17:00:00,
2013-02-06 12:05:00,37.6,30.4,30.18,West,259,7.0,16.0,75,0.00,,---,0.00,VWS V14.00,2013-02-06 17:05:00,
2013-02-06 12:10:00,37.3,29.8,30.18,SSW,209,6.0,16.0,74,0.00,,---,0.00,VWS V14.00,2013-02-06 17:10:00,
2013-02-06 12:15:00,37.9,30.4,30.17,SW,235,10.0,14.0,74,0.00,,---,0.00,VWS V14.00,2013-02-06 17:15:00,
2013-02-06 12:20:00,37.5,30.0,30.17,West,262,10.0,15.0,74,0.00,,---,0.00,VWS V14.00,2013-02-06 17:20:00,
2013-02-06 12:25:00,37.4,29.9,30.17,SSW,212,8.0,18.0,74,0.00,,---,0.00,VWS V14.00,2013-02-06 17:25:00,
2013-02-06 12:30:00,37.6,30.1,30.17,WSW,245,6.0,18.0,74,0.00,,---,0.00,VWS V14.00,2013-02-06 17:30:00,
2013-02-06 12:35:00,37.4,29.9,30.17,SW,229,9.0,18.0,74,0.00,,---,0.00,VWS V14.00,2013-02-06 17:35:00,
2013-02-06 12:40:00,37.9,30.4,30.17,SW,224,7.0,18.0,74,0.00,,---,0.00,VWS V14.00,2013-02-06 17:40:00,
2013-02-06 12:45:00,38.3,30.8,30.16,SW,221,11.0,13.0,74,0.00,,---,0.00,VWS V14.00,2013-02-06 17:45:00,
2013-02-06 12:50:00,38.1,30.6,30.16,SW,229,4.0,13.0,74,0.00,,---,0.00,VWS V14.00,2013-02-06 17:50:00,
2013-02-06 12:55:00,38.8,31.2,30.16,WSW,244,7.0,13.0,74,0.00,,---,0.00,VWS V14.00,2013-02-06 17:55:00,
2013-02-06 13:00:00,38.9,31.0,30.15,WSW,243,5.0,13.0,73,0.00,,---,0.00,VWS V14.00,2013-02-06 18:00:00,
2013-02-06 13:05:00,38.8,30.9,30.15,SW,229,8.0,13.0,73,0.00,,---,0.00,VWS V14.00,2013-02-06 18:05:00,
2013-02-06 13:10:00,39.1,31.2,30.15,WSW,239,10.0,13.0,73,0.00,,---,0.00,VWS V14.00,2013-02-06 18:10:00,
2013-02-06 13:15:00,39.1,31.2,30.15,SW,224,7.0,11.0,73,0.00,,---,0.00,VWS V14.00,2013-02-06 18:15:00,
2013-02-06 13:20:00,39.3,31.0,30.15,SSW,211,6.0,11.0,72,0.00,,---,0.00,VWS V14.00,2013-02-06 18:20:00,
2013-02-06 13:25:00,39.9,32.0,30.15,SW,217,0.0,11.0,73,0.00,,---,0.00,VWS V14.00,2013-02-06 18:25:00,
2013-02-06 13:30:00,39.6,31.3,30.15,SW,233,7.0,12.0,72,0.00,,---,0.00,VWS V14.00,2013-02-06 18:30:00,
2013-02-06 13:35:00,39.5,30.9,30.15,WSW,252,9.0,12.0,71,0.00,,---,0.00,VWS V14.00,2013-02-06 18:35:00,
2013-02-06 13:40:00,39.9,31.6,30.15,SW,220,11.0,12.0,72,0.00,,---,0.00,VWS V14.00,2013-02-06 18:40:00,
2013-02-06 13:45:00,40.1,31.8,30.14,SW,233,7.0,7.0,72,0.00,,---,0.00,VWS V14.00,2013-02-06 18:45:00,
2013-02-06 13:50:00,40.4,32.1,30.14,SW,224,9.0,12.0,72,0.00,,---,0.00,VWS V14.00,2013-02-06 18:50:00,
2013-02-06 13:54:00,40.5,32.2,30.14,SSW,210,1.0,12.0,72,0.00,,---,0.00,VWS V14.00,2013-02-06 18:54:00,
2013-02-06 13:59:00,40.4,32.1,30.15,South,189,0.0,12.0,72,0.00,,---,0.00,VWS V14.00,2013-02-06 18:59:00,
2013-02-06 14:00:00,38.8,30.6,30.15,SW,225,7.0,13.0,72,0.00,,---,0.00,VWS V14.00,2013-02-06 19:00:00,
2013-02-06 14:04:00,40.6,32.0,30.15,SW,221,8.0,19.0,71,0.00,,---,0.00,VWS V14.00,2013-02-06 19:04:00,
2013-02-06 14:09:00,40.6,32.6,30.15,SW,220,6.0,19.0,73,0.00,,---,0.00,VWS V14.00,2013-02-06 19:09:00,
2013-02-06 14:14:00,40.8,32.1,30.14,SSW,205,1.0,10.0,71,0.00,,---,0.00,VWS V14.00,2013-02-06 19:14:00,
2013-02-06 14:20:00,41.3,32.6,30.14,SW,226,12.0,16.0,71,0.00,,---,0.00,VWS V14.00,2013-02-06 19:20:00,
2013-02-06 14:25:00,40.9,32.2,30.14,SW,221,9.0,16.0,71,0.00,,---,0.00,VWS V14.00,2013-02-06 19:25:00,
2013-02-06 14:30:00,41.2,32.5,30.14,South,176,5.0,16.0,71,0.00,,---,0.00,VWS V14.00,2013-02-06 19:30:00,
2013-02-06 14:35:00,41.3,32.3,30.14,SSW,202,12.0,16.0,70,0.00,,---,0.00,VWS V14.00,2013-02-06 19:35:00,
2013-02-06 14:39:00,41.3,32.3,30.14,SW,228,10.0,16.0,70,0.00,,---,0.00,VWS V14.00,2013-02-06 19:39:00,
2013-02-06 14:44:00,41.2,31.8,30.13,SSW,206,9.0,13.0,69,0.00,,---,0.00,VWS V14.00,2013-02-06 19:44:00,
2013-02-06 14:49:00,41.4,32.0,30.13,SW,229,11.0,16.0,69,0.00,,---,0.00,VWS V14.00,2013-02-06 19:49:00,
2013-02-06 14:54:00,41.8,32.8,30.13,SW,220,8.0,16.0,70,0.00,,---,0.00,VWS V14.00,2013-02-06 19:54:00,
2013-02-06 14:59:00,41.6,32.6,30.12,SSW,198,7.0,16.0,70,0.00,,---,0.00,VWS V14.00,2013-02-06 19:59:00,
2013-02-06 15:00:00,40.8,32.1,30.14,SW,225,7.0,19.0,71,0.00,,---,0.00,VWS V14.00,2013-02-06 20:00:00,
2013-02-06 15:04:00,41.9,32.5,30.12,SSW,207,7.0,16.0,69,0.00,,---,0.00,VWS V14.00,2013-02-06 20:04:00,
2013-02-06 15:09:00,42.1,32.7,30.12,South,176,4.0,16.0,69,0.00,,---,0.00,VWS V14.00,2013-02-06 20:09:00,
2013-02-06 15:14:00,42.0,32.6,30.12,SSW,213,9.0,13.0,69,0.00,,---,0.00,VWS V14.00,2013-02-06 20:14:00,
2013-02-06 15:19:00,42.0,32.6,30.12,WSW,243,8.0,18.0,69,0.00,,---,0.00,VWS V14.00,2013-02-06 20:19:00,
2013-02-06 15:24:00,42.4,32.6,30.12,SW,215,10.0,18.0,68,0.00,,---,0.00,VWS V14.00,2013-02-06 20:24:00,
2013-02-06 15:29:00,42.3,32.5,30.12,SW,219,6.0,18.0,68,0.00,,---,0.00,VWS V14.00,2013-02-06 20:29:00,
2013-02-06 15:30:00,41.2,31.8,30.13,SW,225,9.0,16.0,69,0.00,,---,0.00,VWS V14.00,2013-02-06 20:30:00,
2013-02-06 15:34:00,42.4,33.0,30.12,South,184,9.0,18.0,69,0.00,,---,0.00,VWS V14.00,2013-02-06 20:34:00,
2013-02-06 15:39:00,42.5,34.1,30.12,SSW,200,12.0,18.0,72,0.00,,---,0.00,VWS V14.00,2013-02-06 20:39:00,
2013-02-06 15:44:00,42.5,32.3,30.12,SSW,211,12.0,14.0,67,0.00,,---,0.00,VWS V14.00,2013-02-06 20:44:00,
2013-02-06 15:49:00,42.9,33.1,30.12,SW,222,7.0,14.0,68,0.00,,---,0.00,VWS V14.00,2013-02-06 20:49:00,
2013-02-06 15:54:00,43.1,33.3,30.12,SW,219,7.0,14.0,68,0.00,,---,0.00,VWS V14.00,2013-02-06 20:54:00,
2013-02-06 15:59:00,43.1,32.9,30.11,South,189,0.0,14.0,67,0.00,,---,0.00,VWS V14.00,2013-02-06 20:59:00,
2013-02-06 16:00:00,42.2,32.4,30.12,SSW,202,8.0,16.0,68,0.00,,---,0.00,VWS V14.00,2013-02-06 21:00:00,
2013-02-06 16:04:00,43.2,33.0,30.11,SE,139,6.0,16.0,67,0.00,,---,0.00,VWS V14.00,2013-02-06 21:04:00,
2013-02-06 16:09:00,43.3,33.5,30.11,SW,219,9.0,16.0,68,0.00,,---,0.00,VWS V14.00,2013-02-06 21:09:00,
2013-02-06 16:14:00,43.3,33.5,30.10,SSW,192,3.0,11.0,68,0.00,,---,0.00,VWS V14.00,2013-02-06 21:14:00,
2013-02-06 16:19:00,43.0,32.8,30.10,SW,226,9.0,13.0,67,0.00,,---,0.00,VWS V14.00,2013-02-06 21:19:00,
2013-02-06 16:24:00,43.2,33.4,30.10,SSW,209,6.0,13.0,68,0.00,,---,0.00,VWS V14.00,2013-02-06 21:24:00,
2013-02-06 16:29:00,43.5,33.3,30.09,SSW,207,5.0,13.0,67,0.00,,---,0.00,VWS V14.00,2013-02-06 21:29:00,
2013-02-06 16:30:00,42.5,32.7,30.12,SSW,202,8.0,18.0,68,0.00,,---,0.00,VWS V14.00,2013-02-06 21:30:00,
2013-02-06 16:34:00,43.6,33.0,30.09,SW,214,6.0,13.0,66,0.00,,---,0.00,VWS V14.00,2013-02-06 21:34:00,
2013-02-06 16:39:00,43.6,33.4,30.09,SSW,210,0.0,13.0,67,0.00,,---,0.00,VWS V14.00,2013-02-06 21:39:00,
2013-02-06 16:44:00,43.6,33.4,30.09,South,188,0.0,5.0,67,0.00,,---,0.00,VWS V14.00,2013-02-06 21:44:00,
2013-02-06 16:49:00,43.5,33.3,30.09,SSW,195,0.0,8.0,67,0.00,,---,0.00,VWS V14.00,2013-02-06 21:49:00,
2013-02-06 16:54:00,43.4,33.2,30.09,SSE,155,0.0,11.0,67,0.00,,---,0.00,VWS V14.00,2013-02-06 21:54:00,
2013-02-06 16:59:00,43.3,33.1,30.08,South,172,4.0,11.0,67,0.00,,---,0.00,VWS V14.00,2013-02-06 21:59:00,
2013-02-06 17:00:00,43.1,33.3,30.10,SSW,202,8.0,16.0,68,0.00,,---,0.00,VWS V14.00,2013-02-06 22:00:00,
2013-02-06 17:04:00,43.2,33.0,30.08,SW,217,9.0,11.0,67,0.00,,---,0.00,VWS V14.00,2013-02-06 22:04:00,
2013-02-06 17:09:00,43.1,33.3,30.08,South,176,0.0,11.0,68,0.00,,---,0.00,VWS V14.00,2013-02-06 22:09:00,
2013-02-06 17:14:00,43.1,33.3,30.07,SSE,165,4.0,5.0,68,0.00,,---,0.00,VWS V14.00,2013-02-06 22:14:00,
2013-02-06 17:19:00,43.1,33.3,30.07,SSE,167,0.0,6.0,68,0.00,,---,0.00,VWS V14.00,2013-02-06 22:19:00,
2013-02-06 17:24:00,43.0,33.5,30.07,South,169,0.0,11.0,69,0.00,,---,0.00,VWS V14.00,2013-02-06 22:24:00,
2013-02-06 17:29:00,42.9,33.4,30.07,SSE,149,2.0,11.0,69,0.00,,---,0.00,VWS V14.00,2013-02-06 22:29:00,
2013-02-06 17:30:00,43.6,33.4,30.09,SSW,202,6.0,13.0,67,0.00,,---,0.00,VWS V14.00,2013-02-06 22:30:00,
2013-02-06 17:34:00,42.8,33.3,30.07,South,169,0.0,11.0,69,0.00,,---,0.00,VWS V14.00,2013-02-06 22:34:00,
2013-02-06 17:39:00,42.7,33.2,30.07,SSE,153,0.0,11.0,69,0.00,,---,0.00,VWS V14.00,2013-02-06 22:39:00,
2013-02-06 17:44:00,42.5,33.4,30.06,SSE,155,0.0,0.0,70,0.00,,---,0.00,VWS V14.00,2013-02-06 22:44:00,
2013-02-06 17:49:00,42.4,33.3,30.06,SSE,167,0.0,6.0,70,0.00,,---,0.00,VWS V14.00,2013-02-06 22:49:00,
2013-02-06 17:54:00,42.2,33.1,30.06,SSE,158,0.0,7.0,70,0.00,,---,0.00,VWS V14.00,2013-02-06 22:54:00,
2013-02-06 17:59:00,42.0,32.9,30.06,East,92,0.0,7.0,70,0.00,,---,0.00,VWS V14.00,2013-02-06 22:59:00,
2013-02-06 18:00:00,43.1,33.3,30.07,South,180,2.0,11.0,68,0.00,,---,0.00,VWS V14.00,2013-02-06 23:00:00,
2013-02-06 18:04:00,41.9,33.2,30.06,ESE,103,0.0,7.0,71,0.00,,---,0.00,VWS V14.00,2013-02-06 23:04:00,
2013-02-06 18:09:00,41.8,33.1,30.06,ESE,103,0.0,7.0,71,0.00,,---,0.00,VWS V14.00,2013-02-06 23:09:00,
2013-02-06 18:14:00,41.6,32.9,30.06,SE,141,0.0,0.0,71,0.00,,---,0.00,VWS V14.00,2013-02-06 23:14:00,
2013-02-06 18:19:00,41.5,32.8,30.06,South,182,0.0,6.0,71,0.00,,---,0.00,VWS V14.00,2013-02-06 23:19:00,
2013-02-06 18:24:00,41.3,33.0,30.06,South,182,0.0,6.0,72,0.00,,---,0.00,VWS V14.00,2013-02-06 23:24:00,
2013-02-06 18:29:00,41.2,32.9,30.06,South,175,0.0,6.0,72,0.00,,---,0.00,VWS V14.00,2013-02-06 23:29:00,
2013-02-06 18:30:00,42.6,33.2,30.06,South,180,1.0,11.0,69,0.00,,---,0.00,VWS V14.00,2013-02-06 23:30:00,
2013-02-06 18:34:00,41.0,33.0,30.06,South,176,5.0,6.0,73,0.00,,---,0.00,VWS V14.00,2013-02-06 23:34:00,
2013-02-06 18:39:00,40.9,32.9,30.06,South,184,2.0,6.0,73,0.00,,---,0.00,VWS V14.00,2013-02-06 23:39:00,
2013-02-06 18:44:00,40.8,32.8,30.07,South,184,0.0,6.0,73,0.00,,---,0.00,VWS V14.00,2013-02-06 23:44:00,
2013-02-06 18:49:00,40.8,33.2,30.07,South,169,0.0,8.0,74,0.00,,---,0.00,VWS V14.00,2013-02-06 23:49:00,
2013-02-06 18:54:00,40.7,33.1,30.07,South,185,3.0,9.0,74,0.00,,---,0.00,VWS V14.00,2013-02-06 23:54:00,
2013-02-06 18:59:00,40.7,33.4,30.08,SSE,151,0.0,10.0,75,0.00,,---,0.00,VWS V14.00,2013-02-06 23:59:00,
2013-02-06 19:00:00,41.6,32.9,30.06,SSE,158,0.0,7.0,71,0.00,,---,0.00,VWS V14.00,2013-02-07 00:00:00,
2013-02-06 19:04:00,40.8,33.5,30.08,South,188,3.0,12.0,75,0.00,,---,0.00,VWS V14.00,2013-02-07 00:04:00,
2013-02-06 19:09:00,40.8,33.5,30.08,SSW,193,2.0,12.0,75,0.00,,---,0.00,VWS V14.00,2013-02-07 00:09:00,
2013-02-06 19:14:00,40.9,33.6,30.09,SSE,161,0.0,13.0,75,0.00,,---,0.00,VWS V14.00,2013-02-07 00:14:00,
2013-02-06 19:19:00,40.9,33.6,30.09,South,182,9.0,13.0,75,0.00,,---,0.00,VWS V14.00,2013-02-07 00:19:00,
2013-02-06 19:24:00,40.9,33.6,30.09,South,187,6.0,13.0,75,0.00,,---,0.00,VWS V14.00,2013-02-07 00:24:00,
2013-02-06 19:29:00,40.8,33.5,30.08,South,178,6.0,13.0,75,0.00,,---,0.00,VWS V14.00,2013-02-07 00:29:00,
2013-02-06 19:30:00,40.9,32.9,30.07,South,180,1.0,7.0,73,0.00,,---,0.00,VWS V14.00,2013-02-07 00:30:00,
2013-02-06 19:34:00,40.7,33.4,30.08,SSW,200,0.0,13.0,75,0.00,,---,0.00,VWS V14.00,2013-02-07 00:34:00,
2013-02-06 19:39:00,40.7,33.4,30.08,South,183,6.0,13.0,75,0.00,,---,0.00,VWS V14.00,2013-02-07 00:39:00,
2013-02-06 19:44:00,40.7,33.4,30.08,SE,125,0.0,10.0,75,0.00,,---,0.00,VWS V14.00,2013-02-07 00:44:00,
2013-02-06 19:49:00,40.6,33.3,30.08,SSW,193,13.0,13.0,75,0.00,,---,0.00,VWS V14.00,2013-02-07 00:49:00,
2013-02-06 19:54:00,40.6,33.3,30.08,SSE,157,0.0,13.0,75,0.00,,---,0.00,VWS V14.00,2013-02-07 00:54:00,
2013-02-06 19:59:00,40.5,33.2,30.06,South,190,6.0,13.0,75,0.00,,---,0.00,VWS V14.00,2013-02-07 00:59:00,
2013-02-06 20:00:00,40.9,33.6,30.09,South,180,3.0,12.0,75,0.00,,---,0.00,VWS V14.00,2013-02-07 01:00:00,
2013-02-06 20:04:00,40.5,33.2,30.06,South,170,0.0,13.0,75,0.00,,---,0.00,VWS V14.00,2013-02-07 01:04:00,
2013-02-06 20:09:00,40.4,33.1,30.06,SSE,166,4.0,13.0,75,0.00,,---,0.00,VWS V14.00,2013-02-07 01:09:00,
2013-02-06 20:14:00,40.4,33.1,30.06,South,174,0.0,5.0,75,0.00,,---,0.00,VWS V14.00,2013-02-07 01:14:00,
2013-02-06 20:19:00,40.2,33.2,30.06,South,175,5.0,8.0,76,0.00,,---,0.00,VWS V14.00,2013-02-07 01:19:00,
2013-02-06 20:24:00,40.1,33.2,30.06,South,180,0.0,11.0,76,0.00,,---,0.00,VWS V14.00,2013-02-07 01:24:00,
2013-02-06 20:29:00,40.0,33.1,30.06,SSE,157,0.0,11.0,76,0.00,,---,0.00,VWS V14.00,2013-02-07 01:29:00,
2013-02-06 20:30:00,40.7,33.4,30.08,South,180,4.0,13.0,75,0.00,,---,0.00,VWS V14.00,2013-02-07 01:30:00,
2013-02-06 20:34:00,39.8,32.9,30.06,South,178,0.0,11.0,76,0.00,,---,0.00,VWS V14.00,2013-02-07 01:34:00,
2013-02-06 20:39:00,39.7,32.8,30.06,SE,143,6.0,11.0,76,0.00,,---,0.00,VWS V14.00,2013-02-07 01:39:00,
2013-02-06 20:44:00,39.6,32.7,30.07,SSE,160,0.0,7.0,76,0.00,,---,0.00,VWS V14.00,2013-02-07 01:44:00,
2013-02-06 20:49:00,39.5,32.6,30.07,South,176,3.0,8.0,76,0.00,,---,0.00,VWS V14.00,2013-02-07 01:49:00,
2013-02-06 20:54:00,39.5,32.9,30.07,South,186,1.0,11.0,77,0.00,,---,0.00,VWS V14.00,2013-02-07 01:54:00,
2013-02-06 20:59:00,39.4,32.8,30.06,SE,135,0.0,11.0,77,0.00,,---,0.00,VWS V14.00,2013-02-07 01:59:00,
2013-02-06 21:00:00,40.4,33.1,30.06,South,180,3.0,13.0,75,0.00,,---,0.00,VWS V14.00,2013-02-07 02:00:00,
2013-02-06 21:04:00,39.3,32.7,30.06,SE,141,0.0,11.0,77,0.00,,---,0.00,VWS V14.00,2013-02-07 02:04:00,
2013-02-06 21:09:00,39.2,32.6,30.06,South,179,6.0,11.0,77,0.00,,---,0.00,VWS V14.00,2013-02-07 02:09:00,
2013-02-06 21:14:00,39.1,32.5,30.06,ESE,117,1.0,8.0,77,0.00,,---,0.00,VWS V14.00,2013-02-07 02:14:00,
2013-02-06 21:19:00,39.0,32.4,30.06,South,175,1.0,12.0,77,0.00,,---,0.00,VWS V14.00,2013-02-07 02:19:00,
2013-02-06 21:24:00,39.0,32.4,30.06,South,186,1.0,12.0,77,0.00,,---,0.00,VWS V14.00,2013-02-07 02:24:00,
2013-02-06 21:29:00,38.9,32.3,30.05,South,181,9.0,12.0,77,0.00,,---,0.00,VWS V14.00,2013-02-07 02:29:00,
2013-02-06 21:30:00,39.7,32.8,30.07,South,180,1.0,12.0,76,0.00,,---,0.00,VWS V14.00,2013-02-07 02:30:00,
2013-02-06 21:34:00,38.8,32.2,30.05,SSE,166,0.0,12.0,77,0.00,,---,0.00,VWS V14.00,2013-02-07 02:34:00,
2013-02-06 21:39:00,38.7,32.1,30.05,South,181,8.0,18.0,77,0.00,,---,0.00,VWS V14.00,2013-02-07 02:39:00,
2013-02-06 21:44:00,38.6,32.3,30.05,South,186,0.0,12.0,78,0.00,,---,0.00,VWS V14.00,2013-02-07 02:44:00,
2013-02-06 21:49:00,38.4,32.2,30.05,South,172,2.0,12.0,78,0.00,,---,0.00,VWS V14.00,2013-02-07 02:49:00,
2013-02-06 21:54:00,38.3,32.0,30.05,SSE,162,5.0,12.0,78,0.00,,---,0.00,VWS V14.00,2013-02-07 02:54:00,
2013-02-06 21:59:00,38.1,32.2,30.04,SSW,195,6.0,12.0,79,0.00,,---,0.00,VWS V14.00,2013-02-07 02:59:00,
2013-02-06 22:00:00,39.1,32.5,30.06,South,180,2.0,11.0,77,0.00,,---,0.00,VWS V14.00,2013-02-07 03:00:00,
2013-02-06 22:04:00,38.0,32.1,30.04,South,179,0.0,12.0,79,0.00,,---,0.00,VWS V14.00,2013-02-07 03:04:00,
2013-02-06 22:09:00,37.9,32.3,30.04,South,179,0.0,13.0,80,0.00,,---,0.00,VWS V14.00,2013-02-07 03:09:00,
2013-02-06 22:14:00,37.7,32.1,30.04,SSE,166,10.0,10.0,80,0.00,,---,0.00,VWS V14.00,2013-02-07 03:14:00,
2013-02-06 22:19:00,37.7,32.1,30.04,SSW,202,9.0,15.0,80,0.00,,---,0.00,VWS V14.00,2013-02-07 03:19:00,
2013-02-06 22:24:00,37.7,32.1,30.04,South,186,9.0,15.0,80,0.00,,---,0.00,VWS V14.00,2013-02-07 03:24:00,
2013-02-06 22:29:00,37.7,32.1,30.04,South,186,10.0,15.0,80,0.00,,---,0.00,VWS V14.00,2013-02-07 03:29:00,
2013-02-06 22:30:00,38.6,32.3,30.05,South,180,4.0,18.0,78,0.00,,---,0.00,VWS V14.00,2013-02-07 03:30:00,
2013-02-06 22:34:00,37.8,32.2,30.04,South,173,12.0,18.0,80,0.00,,---,0.00,VWS V14.00,2013-02-07 03:34:00,
2013-02-06 22:39:00,37.8,32.2,30.04,South,173,8.0,18.0,80,0.00,,---,0.00,VWS V14.00,2013-02-07 03:39:00,
2013-02-06 22:44:00,37.8,32.2,30.05,SW,218,6.0,11.0,80,0.00,,---,0.00,VWS V14.00,2013-02-07 03:44:00,
2013-02-06 22:49:00,37.8,32.2,30.05,South,191,7.0,13.0,80,0.00,,---,0.00,VWS V14.00,2013-02-07 03:49:00,
2013-02-06 22:54:00,37.8,32.2,30.05,SSW,205,8.0,15.0,80,0.00,,---,0.00,VWS V14.00,2013-02-07 03:54:00,
2013-02-06 22:59:00,37.7,31.8,30.05,SSW,211,0.0,18.0,79,0.00,,---,0.00,VWS V14.00,2013-02-07 03:59:00,
2013-02-06 23:00:00,37.8,32.2,30.04,South,180,4.0,13.0,80,0.00,,---,0.00,VWS V14.00,2013-02-07 04:00:00,
2013-02-06 23:04:00,37.5,31.9,30.05,SSW,212,14.0,18.0,80,0.00,,---,0.00,VWS V14.00,2013-02-07 04:04:00,
2013-02-06 23:09:00,37.4,31.8,30.05,SSE,163,0.0,18.0,80,0.00,,---,0.00,VWS V14.00,2013-02-07 04:09:00,
2013-02-06 23:14:00,37.3,31.7,30.04,SW,227,9.0,23.0,80,0.00,,---,0.00,VWS V14.00,2013-02-07 04:14:00,
2013-02-06 23:19:00,37.2,31.6,30.04,ESE,120,5.0,23.0,80,0.00,,---,0.00,VWS V14.00,2013-02-07 04:19:00,
2013-02-06 23:24:00,37.1,31.8,30.04,SE,141,3.0,23.0,81,0.00,,---,0.00,VWS V14.00,2013-02-07 04:24:00,
2013-02-06 23:29:00,37.0,31.7,30.04,South,176,7.0,23.0,81,0.00,,---,0.00,VWS V14.00,2013-02-07 04:29:00,
2013-02-06 23:30:00,37.8,32.2,30.05,South,180,6.0,18.0,80,0.00,,---,0.00,VWS V14.00,2013-02-07 04:30:00,
2013-02-06 23:34:00,36.9,31.6,30.04,South,181,2.0,23.0,81,0.00,,---,0.00,VWS V14.00,2013-02-07 04:34:00,
2013-02-06 23:39:00,36.8,31.5,30.04,SW,214,6.0,23.0,81,0.00,,---,0.00,VWS V14.00,2013-02-07 04:39:00,
2013-02-06 23:44:00,36.8,31.5,30.03,SSE,162,1.0,19.0,81,0.00,,---,0.00,VWS V14.00,2013-02-07 04:44:00,
2013-02-06 23:49:00,36.6,31.6,30.03,South,183,14.0,19.0,82,0.00,,---,0.00,VWS V14.00,2013-02-07 04:49:00,
2013-02-06 23:54:00,36.6,31.6,30.03,SW,219,9.0,19.0,82,0.00,,---,0.00,VWS V14.00,2013-02-07 04:54:00,
2013-02-06 23:59:00,36.5,31.5,30.02,SE,128,0.0,22.0,82,0.00,,---,0.00,VWS V14.00,2013-02-07 04:59:00,